Weather in Garm

Tajikistan     39°01′32″N   70°22′27″E
temp.,
°C
wind,
m/s
gust,
m/s
humid.,
%
clouds,
%
prec.,
mm/h
press.,
hPa
HPBL,
m
16 april, fri
fri1623:00+5ese1181100 0.7 102021
02:00+4ene11775 0.0 101916
05:00+3ene227617 0.0 102020
08:00+5ene227240 0.0 1021237
11:00+8e226451 0.0 1020798
14:00+11e225267 0.0 10181378
17:00+12ene224918 0.0 10171374
20:00+7e226614 0.0 101932
17 april, sat
sat1723:00+6ne2266100 0.0 102055
02:00+5ene2267100 0.0 101926
05:00+4ene226951 0.0 101926
08:00+7ene125910 0.0 1020312
11:00+10se01483 0.0 10181257
14:00+13wnw123432 0.1 10162089
17:00+12s334491 0.1 10151793
20:00+8ssw11668 0.8 101819
18 april, sun
sun1823:00+6s1179100 2.3 101924
02:00+6se2274100 2.0 101871
05:00+6sse2277100 3.2 1020242
08:00+4ssw3491100 2.1 1024401
11:00+7sw3364100 2.7 10241151
14:00+6wsw4386100 1.3 1024714
17:00+4s229598 3.7 1025397
20:00+4ne118972 0.2 1026269
19 april, mon
mon1923:00+4ne228147 0.2 1025233
02:00+3n227551 0.0 102429
05:00+2nne227279 0.0 102422
08:00+5nne2260100 0.0 1022383
11:00+9n114856 0.0 10191069
14:00+11wnw213997 0.0 10161487
17:00+12nw2140100 0.0 10141031
20:00+9nnw1154100 0.0 101517
20 april, tue
tue2023:00+8n1157100 0.0 101518
02:00+7nne1157100 0.0 101416
05:00+6nne1156100 0.0 101416
08:00+9nne114799 0.0 1014243
11:00+12wsw2241100 0.0 1012956
14:00+15wsw24317 0.0 10102159
17:00+14sw3431100 0.0 10082193
20:00+10ssw2258100 0.0 101028